Year,Month,Day,Hour,Minute,Value (Times are PST for barometer in hPa)
2022,01,21,11,09,1039.75
2022,01,21,11,13,1039.62
2022,01,21,11,14,1039.62
2022,01,21,11,15,1039.59
2022,01,21,11,16,1039.60
2022,01,21,11,17,1039.65
2022,01,21,11,18,1039.60
2022,01,21,11,19,1039.66
2022,01,21,11,20,1039.69
2022,01,21,11,21,1039.66
2022,01,21,11,22,1039.69
2022,01,21,11,23,1039.66
2022,01,21,11,24,1039.62
2022,01,21,11,25,1039.62
2022,01,21,11,26,1039.59
2022,01,21,11,27,1039.62
2022,01,21,11,28,1039.60
2022,01,21,11,29,1039.66
2022,01,21,11,30,1039.66
2022,01,21,11,31,1039.69
2022,01,21,11,32,1039.66
2022,01,21,11,33,1039.66
2022,01,21,11,34,1039.65
2022,01,21,11,35,1039.59
2022,01,21,11,36,1039.59
2022,01,21,11,37,1039.62
2022,01,21,11,38,1039.62
2022,01,21,11,39,1039.59
2022,01,21,11,40,1039.59
2022,01,21,11,41,1039.55
2022,01,21,11,42,1039.52
2022,01,21,11,43,1039.49
2022,01,21,11,44,1039.51
2022,01,21,11,45,1039.46
2022,01,21,11,46,1039.51
2022,01,21,11,47,1039.45
2022,01,21,11,48,1039.49
2022,01,21,11,49,1039.52
2022,01,21,11,50,1039.52
2022,01,21,11,51,1039.52
2022,01,21,11,52,1039.55
2022,01,21,11,53,1039.59
2022,01,21,11,54,1039.62
2022,01,21,11,55,1039.62
2022,01,21,11,56,1039.59
2022,01,21,11,57,1039.59
2022,01,21,11,58,1039.59
2022,01,21,11,59,1039.55
2022,01,21,12,00,1039.59
2022,01,21,12,01,1039.62
2022,01,21,12,02,1039.59
2022,01,21,12,03,1039.55
2022,01,21,12,04,1039.55
2022,01,21,12,05,1039.52
2022,01,21,12,06,1039.49
2022,01,21,12,07,1039.48
2022,01,21,12,08,1039.42
2022,01,21,12,09,1039.42
2022,01,21,12,10,1039.45
2022,01,21,12,11,1039.45
2022,01,21,12,12,1039.42
2022,01,21,12,13,1039.42
2022,01,21,12,14,1039.42
2022,01,21,12,15,1039.42
2022,01,21,12,16,1039.38
2022,01,21,12,17,1039.42
2022,01,21,12,18,1039.38
2022,01,21,12,19,1039.38
2022,01,21,12,20,1039.38
2022,01,21,12,21,1039.38
2022,01,21,12,22,1039.38
2022,01,21,12,23,1039.38
2022,01,21,12,24,1039.38
2022,01,21,12,25,1039.42
2022,01,21,12,26,1039.42
2022,01,21,12,27,1039.45
2022,01,21,12,28,1039.49
2022,01,21,12,29,1039.52
2022,01,21,12,30,1039.52
2022,01,21,12,31,1039.55
2022,01,21,12,32,1039.52
2022,01,21,12,33,1039.54
2022,01,21,12,34,1039.45
2022,01,21,12,35,1039.49
2022,01,21,12,36,1039.49
2022,01,21,12,37,1039.52
2022,01,21,12,38,1039.52
2022,01,21,12,39,1039.55
2022,01,21,12,40,1039.52
2022,01,21,12,41,1039.49
2022,01,21,12,42,1039.52
2022,01,21,12,43,1039.56
2022,01,21,12,44,1039.62
2022,01,21,12,45,1039.62
2022,01,21,12,46,1039.59
2022,01,21,12,47,1039.62
2022,01,21,12,48,1039.65
2022,01,21,12,49,1039.59
2022,01,21,12,50,1039.62
2022,01,21,12,51,1039.66
2022,01,21,12,52,1039.66
2022,01,21,12,53,1039.69
2022,01,21,12,54,1039.66
2022,01,21,12,55,1039.66
2022,01,21,12,56,1039.66
2022,01,21,12,57,1039.66
2022,01,21,12,58,1039.66
2022,01,21,12,59,1039.63
2022,01,21,13,00,1039.69
2022,01,21,13,01,1039.66
2022,01,21,13,02,1039.66
2022,01,21,13,03,1039.69
2022,01,21,13,04,1039.66
2022,01,21,13,05,1039.68
2022,01,21,13,06,1039.62
2022,01,21,13,07,1039.62
2022,01,21,13,08,1039.62
2022,01,21,13,09,1039.62
2022,01,21,13,10,1039.62
2022,01,21,13,11,1039.59
2022,01,21,13,12,1039.59
2022,01,21,13,13,1039.55
2022,01,21,13,14,1039.58
2022,01,21,13,15,1039.52
2022,01,21,13,16,1039.52
2022,01,21,13,17,1039.52
2022,01,21,13,18,1039.52
2022,01,21,13,19,1039.52
2022,01,21,13,20,1039.55
2022,01,21,13,21,1039.52
2022,01,21,13,22,1039.50
2022,01,21,13,23,1039.54
2022,01,21,13,24,1039.49
2022,01,21,13,25,1039.49
2022,01,21,13,26,1039.52
2022,01,21,13,27,1039.55
2022,01,21,13,28,1039.55
2022,01,21,13,29,1039.52
2022,01,21,13,30,1039.55
2022,01,21,13,31,1039.55
2022,01,21,13,32,1039.55
2022,01,21,13,33,1039.55
2022,01,21,13,34,1039.55
2022,01,21,13,35,1039.59
2022,01,21,13,36,1039.59
2022,01,21,13,37,1039.61
2022,01,21,13,38,1039.55
2022,01,21,13,39,1039.55
2022,01,21,13,40,1039.52
2022,01,21,13,41,1039.52
2022,01,21,13,42,1039.49
2022,01,21,13,43,1039.52
2022,01,21,13,44,1039.52
2022,01,21,13,45,1039.52
2022,01,21,13,46,1039.49
2022,01,21,13,47,1039.45
2022,01,21,13,48,1039.49
2022,01,21,13,49,1039.51
2022,01,21,13,50,1039.45
2022,01,21,13,51,1039.45
2022,01,21,13,52,1039.49
2022,01,21,13,53,1039.49
2022,01,21,13,54,1039.49
2022,01,21,13,55,1039.49
2022,01,21,13,56,1039.49
2022,01,21,13,57,1039.49
2022,01,21,13,58,1039.49
2022,01,21,13,59,1039.45
2022,01,21,14,00,1039.45
2022,01,21,14,01,1039.45
2022,01,21,14,02,1039.42
2022,01,21,14,03,1039.45
2022,01,21,14,04,1039.45
2022,01,21,14,05,1039.45
2022,01,21,14,06,1039.45
2022,01,21,14,07,1039.42
2022,01,21,14,08,1039.38
2022,01,21,14,09,1039.42
2022,01,21,14,10,1039.42
2022,01,21,14,11,1039.38
2022,01,21,14,12,1039.35
2022,01,21,14,13,1039.38
2022,01,21,14,14,1039.38
2022,01,21,14,15,1039.38
2022,01,21,14,16,1039.38
2022,01,21,14,17,1039.38
2022,01,21,14,18,1039.42
2022,01,21,14,19,1039.42
2022,01,21,14,20,1039.45
2022,01,21,14,21,1039.49
2022,01,21,14,22,1039.45
2022,01,21,14,23,1039.45
2022,01,21,14,24,1039.42
2022,01,21,14,25,1039.42
2022,01,21,14,26,1039.38
2022,01,21,14,27,1039.42
2022,01,21,14,28,1039.45
2022,01,21,14,29,1039.45
2022,01,21,14,30,1039.42
2022,01,21,14,31,1039.45
2022,01,21,14,32,1039.42
2022,01,21,14,33,1039.45
2022,01,21,14,34,1039.45
2022,01,21,14,35,1039.42
2022,01,21,14,36,1039.38
2022,01,21,14,37,1039.38
2022,01,21,14,38,1039.38
2022,01,21,14,39,1039.42
2022,01,21,14,40,1039.42
2022,01,21,14,41,1039.44
2022,01,21,14,42,1039.38
2022,01,21,14,43,1039.35
2022,01,21,14,44,1039.35
2022,01,21,14,45,1039.38
2022,01,21,14,46,1039.35
2022,01,21,14,47,1039.35
2022,01,21,14,48,1039.35
2022,01,21,14,49,1039.38
2022,01,21,14,50,1039.38
2022,01,21,14,51,1039.38
2022,01,21,14,52,1039.42
2022,01,21,14,53,1039.42
2022,01,21,14,54,1039.39
2022,01,21,14,55,1039.45
2022,01,21,14,56,1039.45
2022,01,21,14,57,1039.49
2022,01,21,14,58,1039.45
2022,01,21,14,59,1039.45
2022,01,21,15,00,1039.49
2022,01,21,15,01,1039.52
2022,01,21,15,02,1039.49
2022,01,21,15,03,1039.49
2022,01,21,15,04,1039.52
2022,01,21,15,05,1039.52
2022,01,21,15,06,1039.52
2022,01,21,15,07,1039.52
2022,01,21,15,08,1039.52
2022,01,21,15,09,1039.52
2022,01,21,15,10,1039.52
2022,01,21,15,11,1039.52
2022,01,21,15,12,1039.52
2022,01,21,15,13,1039.52
2022,01,21,15,14,1039.52
2022,01,21,15,15,1039.52
2022,01,21,15,16,1039.52
2022,01,21,15,17,1039.52
2022,01,21,15,18,1039.49
2022,01,21,15,19,1039.52
2022,01,21,15,20,1039.49
2022,01,21,15,21,1039.52
2022,01,21,15,22,1039.49
2022,01,21,15,23,1039.49
2022,01,21,15,24,1039.49
2022,01,21,15,25,1039.49
2022,01,21,15,26,1039.52
2022,01,21,15,27,1039.49
2022,01,21,15,28,1039.45
2022,01,21,15,29,1039.49
2022,01,21,15,30,1039.49
2022,01,21,15,31,1039.52
2022,01,21,15,32,1039.52
2022,01,21,15,33,1039.52
2022,01,21,15,34,1039.49
2022,01,21,15,35,1039.52
2022,01,21,15,36,1039.52
2022,01,21,15,37,1039.55
2022,01,21,15,38,1039.55
2022,01,21,15,39,1039.59
2022,01,21,15,40,1039.56
2022,01,21,15,41,1039.62
2022,01,21,15,42,1039.62
2022,01,21,15,43,1039.59
2022,01,21,15,44,1039.59
2022,01,21,15,45,1039.55
2022,01,21,15,46,1039.55
2022,01,21,15,47,1039.55
2022,01,21,15,48,1039.55
2022,01,21,15,49,1039.60
2022,01,21,15,50,1039.66
2022,01,21,15,51,1039.62
2022,01,21,15,52,1039.66
2022,01,21,15,53,1039.62
2022,01,21,15,54,1039.66
2022,01,21,15,55,1039.66
2022,01,21,15,56,1039.66
2022,01,21,15,57,1039.66
2022,01,21,15,58,1039.69
2022,01,21,15,59,1039.69
2022,01,21,16,00,1039.66
2022,01,21,16,01,1039.66
2022,01,21,16,02,1039.66
2022,01,21,16,03,1039.62
2022,01,21,16,04,1039.66
2022,01,21,16,05,1039.66
2022,01,21,16,06,1039.62
2022,01,21,16,07,1039.66
2022,01,21,16,08,1039.66
2022,01,21,16,09,1039.72
2022,01,21,16,10,1039.72
2022,01,21,16,11,1039.69
2022,01,21,16,12,1039.72
2022,01,21,16,13,1039.72
2022,01,21,16,14,1039.66
2022,01,21,16,15,1039.69
2022,01,21,16,16,1039.66
2022,01,21,16,17,1039.66
2022,01,21,16,18,1039.66
2022,01,21,16,19,1039.66
2022,01,21,16,20,1039.66
2022,01,21,16,21,1039.66
2022,01,21,16,22,1039.69
2022,01,21,16,23,1039.72
2022,01,21,16,24,1039.69
2022,01,21,16,25,1039.69
2022,01,21,16,26,1039.72
2022,01,21,16,27,1039.72
2022,01,21,16,28,1039.76
2022,01,21,16,29,1039.72
2022,01,21,16,30,1039.69
2022,01,21,16,31,1039.66
2022,01,21,16,32,1039.69
2022,01,21,16,33,1039.69
2022,01,21,16,34,1039.69
2022,01,21,16,35,1039.69
2022,01,21,16,36,1039.69
2022,01,21,16,37,1039.69
2022,01,21,16,38,1039.69
2022,01,21,16,39,1039.69
2022,01,21,16,40,1039.73
2022,01,21,16,41,1039.78
2022,01,21,16,42,1039.72
2022,01,21,16,43,1039.76
2022,01,21,16,44,1039.72
2022,01,21,16,45,1039.72
2022,01,21,16,46,1039.73
2022,01,21,16,47,1039.78
2022,01,21,16,48,1039.72
2022,01,21,16,49,1039.76
2022,01,21,16,50,1039.76
2022,01,21,16,51,1039.76
2022,01,21,16,52,1039.72
2022,01,21,16,53,1039.69
2022,01,21,16,54,1039.69
2022,01,21,16,55,1039.69
2022,01,21,16,56,1039.72
2022,01,21,16,57,1039.72
2022,01,21,16,58,1039.69
2022,01,21,16,59,1039.72
2022,01,21,17,00,1039.72
2022,01,21,17,01,1039.72
2022,01,21,17,02,1039.76
2022,01,21,17,03,1039.72
2022,01,21,17,04,1039.69
2022,01,21,17,05,1039.72
2022,01,21,17,06,1039.76
2022,01,21,17,07,1039.76
2022,01,21,17,08,1039.79
2022,01,21,17,09,1039.76
2022,01,21,17,10,1039.76
2022,01,21,17,11,1039.76
2022,01,21,17,12,1039.78
2022,01,21,17,13,1039.73
2022,01,21,17,14,1039.78
2022,01,21,17,15,1039.72
2022,01,21,17,16,1039.72
2022,01,21,17,17,1039.76
2022,01,21,17,18,1039.76
2022,01,21,17,19,1039.73
2022,01,21,17,20,1039.79
2022,01,21,17,21,1039.76
2022,01,21,17,22,1039.75
2022,01,21,17,23,1039.69
2022,01,21,17,24,1039.69
2022,01,21,17,25,1039.69
2022,01,21,17,26,1039.69
2022,01,21,17,27,1039.69
2022,01,21,17,28,1039.69
2022,01,21,17,29,1039.69
2022,01,21,17,30,1039.69
2022,01,21,17,31,1039.72
2022,01,21,17,32,1039.69
2022,01,21,17,33,1039.72
2022,01,21,17,34,1039.69
2022,01,21,17,35,1039.69
2022,01,21,17,36,1039.66
2022,01,21,17,37,1039.61
2022,01,21,17,38,1039.55
2022,01,21,17,39,1039.59
2022,01,21,17,40,1039.59
2022,01,21,17,41,1039.59
2022,01,21,17,42,1039.55
2022,01,21,17,43,1039.55
2022,01,21,17,44,1039.59
2022,01,21,17,45,1039.62
2022,01,21,17,46,1039.62
2022,01,21,17,47,1039.66
2022,01,21,17,48,1039.62
2022,01,21,17,49,1039.62
2022,01,21,17,50,1039.62
2022,01,21,17,51,1039.62
2022,01,21,17,52,1039.59
2022,01,21,17,53,1039.59
2022,01,21,17,54,1039.59
2022,01,21,17,55,1039.59
2022,01,21,17,56,1039.55
2022,01,21,17,57,1039.52
2022,01,21,17,58,1039.55
2022,01,21,17,59,1039.52
2022,01,21,18,00,1039.52
2022,01,21,18,01,1039.52
2022,01,21,18,02,1039.49
2022,01,21,18,03,1039.52
2022,01,21,18,04,1039.49
2022,01,21,18,05,1039.52
2022,01,21,18,06,1039.52
2022,01,21,18,07,1039.49
2022,01,21,18,08,1039.52
2022,01,21,18,09,1039.52
2022,01,21,18,10,1039.52
2022,01,21,18,11,1039.55
2022,01,21,18,12,1039.52
2022,01,21,18,13,1039.49
2022,01,21,18,14,1039.45
2022,01,21,18,15,1039.49
2022,01,21,18,16,1039.49
2022,01,21,18,17,1039.45
2022,01,21,18,18,1039.42
2022,01,21,18,19,1039.42
2022,01,21,18,20,1039.45
2022,01,21,18,21,1039.42
2022,01,21,18,22,1039.42
2022,01,21,18,23,1039.45
2022,01,21,18,24,1039.42
2022,01,21,18,25,1039.38
2022,01,21,18,26,1039.38
2022,01,21,18,27,1039.38
2022,01,21,18,28,1039.35
2022,01,21,18,29,1039.35
2022,01,21,18,30,1039.35
2022,01,21,18,31,1039.35
2022,01,21,18,32,1039.35
2022,01,21,18,33,1039.38
2022,01,21,18,34,1039.38
2022,01,21,18,35,1039.37
2022,01,21,18,36,1039.32
2022,01,21,18,37,1039.35
2022,01,21,18,38,1039.35
2022,01,21,18,39,1039.35
2022,01,21,18,40,1039.35
2022,01,21,18,41,1039.38
2022,01,21,18,42,1039.35
2022,01,21,18,43,1039.38
2022,01,21,18,44,1039.32
2022,01,21,18,45,1039.32
2022,01,21,18,46,1039.38
2022,01,21,18,47,1039.38
2022,01,21,18,48,1039.35
2022,01,21,18,49,1039.38
2022,01,21,18,50,1039.42
2022,01,21,18,51,1039.38
2022,01,21,18,52,1039.38
2022,01,21,18,53,1039.35
2022,01,21,18,54,1039.38
2022,01,21,18,55,1039.38
2022,01,21,18,56,1039.38
2022,01,21,18,57,1039.35
2022,01,21,18,58,1039.32
2022,01,21,18,59,1039.35
2022,01,21,19,00,1039.35
2022,01,21,19,01,1039.38
2022,01,21,19,02,1039.38
2022,01,21,19,03,1039.38
2022,01,21,19,04,1039.36
2022,01,21,19,05,1039.41
2022,01,21,19,06,1039.35
2022,01,21,19,07,1039.38
2022,01,21,19,08,1039.42
2022,01,21,19,09,1039.38
2022,01,21,19,10,1039.38
2022,01,21,19,11,1039.38
2022,01,21,19,12,1039.38
2022,01,21,19,13,1039.38
2022,01,21,19,14,1039.38
2022,01,21,19,15,1039.35
2022,01,21,19,16,1039.38
2022,01,21,19,17,1039.35
2022,01,21,19,18,1039.32
2022,01,21,19,19,1039.32
2022,01,21,19,20,1039.32
2022,01,21,19,21,1039.32
2022,01,21,19,22,1039.35
2022,01,21,19,23,1039.32
2022,01,21,19,24,1039.32
2022,01,21,19,25,1039.38
2022,01,21,19,26,1039.38
2022,01,21,19,27,1039.42
2022,01,21,19,28,1039.38
2022,01,21,19,29,1039.42
2022,01,21,19,30,1039.45
2022,01,21,19,31,1039.45
2022,01,21,19,32,1039.45
2022,01,21,19,33,1039.45
2022,01,21,19,34,1039.45
2022,01,21,19,35,1039.42
2022,01,21,19,36,1039.45
2022,01,21,19,37,1039.45
2022,01,21,19,38,1039.45
2022,01,21,19,39,1039.45
2022,01,21,19,40,1039.45
2022,01,21,19,41,1039.45
2022,01,21,19,42,1039.41
2022,01,21,19,43,1039.36
2022,01,21,19,44,1039.42
2022,01,21,19,45,1039.38
2022,01,21,19,46,1039.38
2022,01,21,19,47,1039.35
2022,01,21,19,48,1039.38
2022,01,21,19,49,1039.42
2022,01,21,19,50,1039.42
2022,01,21,19,51,1039.45
2022,01,21,19,52,1039.43
2022,01,21,19,53,1039.49
2022,01,21,19,54,1039.45
2022,01,21,19,55,1039.49
2022,01,21,19,56,1039.52
2022,01,21,19,57,1039.52
2022,01,21,19,58,1039.52
2022,01,21,19,59,1039.49
2022,01,21,20,00,1039.49
2022,01,21,20,01,1039.45
2022,01,21,20,02,1039.43
2022,01,21,20,03,1039.49
2022,01,21,20,04,1039.45
2022,01,21,20,05,1039.42
2022,01,21,20,06,1039.42
2022,01,21,20,07,1039.42
2022,01,21,20,08,1039.45
2022,01,21,20,09,1039.49
2022,01,21,20,10,1039.45
2022,01,21,20,11,1039.49
2022,01,21,20,12,1039.49
2022,01,21,20,13,1039.46
2022,01,21,20,14,1039.52
2022,01,21,20,15,1039.52
2022,01,21,20,16,1039.49
2022,01,21,20,17,1039.52
2022,01,21,20,18,1039.52
2022,01,21,20,19,1039.52
2022,01,21,20,20,1039.54
2022,01,21,20,21,1039.45
2022,01,21,20,22,1039.45
2022,01,21,20,23,1039.45
2022,01,21,20,24,1039.45
2022,01,21,20,25,1039.42
2022,01,21,20,26,1039.38
2022,01,21,20,27,1039.35
2022,01,21,20,28,1039.31
2022,01,21,20,29,1039.25
2022,01,21,20,30,1039.22
2022,01,21,20,31,1039.28
2022,01,21,20,32,1039.25
2022,01,21,20,33,1039.22
2022,01,21,20,34,1039.28
2022,01,21,20,35,1039.26
2022,01,21,20,36,1039.35
2022,01,21,20,37,1039.35
2022,01,21,20,38,1039.35
2022,01,21,20,39,1039.38
2022,01,21,20,40,1039.38
2022,01,21,20,41,1039.32
2022,01,21,20,42,1039.35
2022,01,21,20,43,1039.35
2022,01,21,20,44,1039.32
2022,01,21,20,45,1039.32
2022,01,21,20,46,1039.28
2022,01,21,20,47,1039.32
2022,01,21,20,48,1039.28
2022,01,21,20,49,1039.25
2022,01,21,20,50,1039.25
2022,01,21,20,51,1039.25
2022,01,21,20,52,1039.25
2022,01,21,20,53,1039.28
2022,01,21,20,54,1039.32
2022,01,21,20,55,1039.32
2022,01,21,20,56,1039.35
2022,01,21,20,57,1039.32
2022,01,21,20,58,1039.35
2022,01,21,20,59,1039.35
2022,01,21,21,00,1039.35
2022,01,21,21,01,1039.38
2022,01,21,21,02,1039.38
2022,01,21,21,03,1039.38
2022,01,21,21,04,1039.32
2022,01,21,21,05,1039.34
2022,01,21,21,06,1039.29
2022,01,21,21,07,1039.35
2022,01,21,21,08,1039.35
2022,01,21,21,09,1039.32
2022,01,21,21,10,1039.32
2022,01,21,21,11,1039.28
2022,01,21,21,12,1039.28
2022,01,21,21,13,1039.28
2022,01,21,21,14,1039.25
2022,01,21,21,15,1039.25
2022,01,21,21,16,1039.28
2022,01,21,21,17,1039.25
2022,01,21,21,18,1039.22
2022,01,21,21,19,1039.28
2022,01,21,21,20,1039.32
2022,01,21,21,21,1039.32
2022,01,21,21,22,1039.38
2022,01,21,21,23,1039.35
2022,01,21,21,24,1039.35
2022,01,21,21,25,1039.35
2022,01,21,21,26,1039.38
2022,01,21,21,27,1039.38
2022,01,21,21,28,1039.42
2022,01,21,21,29,1039.42
2022,01,21,21,30,1039.45
2022,01,21,21,31,1039.49
2022,01,21,21,32,1039.45
2022,01,21,21,33,1039.49
2022,01,21,21,34,1039.49
2022,01,21,21,35,1039.49
2022,01,21,21,36,1039.49
2022,01,21,21,37,1039.49
2022,01,21,21,38,1039.45
2022,01,21,21,39,1039.48
2022,01,21,21,40,1039.42
2022,01,21,21,41,1039.42
2022,01,21,21,42,1039.42
2022,01,21,21,43,1039.42
2022,01,21,21,44,1039.42
2022,01,21,21,45,1039.38
2022,01,21,21,46,1039.41
2022,01,21,21,47,1039.35
2022,01,21,21,48,1039.38
2022,01,21,21,49,1039.38
2022,01,21,21,50,1039.38
2022,01,21,21,51,1039.38
2022,01,21,21,52,1039.35
2022,01,21,21,53,1039.35
2022,01,21,21,54,1039.38
2022,01,21,21,55,1039.35
2022,01,21,21,56,1039.35
2022,01,21,21,57,1039.38
2022,01,21,21,58,1039.35
2022,01,21,21,59,1039.35
2022,01,21,22,00,1039.32
2022,01,21,22,01,1039.28
2022,01,21,22,02,1039.28
2022,01,21,22,03,1039.33
2022,01,21,22,04,1039.37
2022,01,21,22,05,1039.32
2022,01,21,22,06,1039.31
2022,01,21,22,07,1039.25
2022,01,21,22,08,1039.26
2022,01,21,22,09,1039.32
2022,01,21,22,10,1039.28
2022,01,21,22,11,1039.28
2022,01,21,22,12,1039.25
2022,01,21,22,13,1039.28
2022,01,21,22,14,1039.32
2022,01,21,22,15,1039.32
2022,01,21,22,16,1039.35
2022,01,21,22,17,1039.35
2022,01,21,22,18,1039.35
2022,01,21,22,19,1039.38
2022,01,21,22,20,1039.38
2022,01,21,22,21,1039.41
2022,01,21,22,22,1039.35
2022,01,21,22,23,1039.38
2022,01,21,22,24,1039.38
2022,01,21,22,25,1039.36
2022,01,21,22,26,1039.42
2022,01,21,22,27,1039.42
2022,01,21,22,28,1039.42
2022,01,21,22,29,1039.42
2022,01,21,22,30,1039.42
2022,01,21,22,31,1039.42
2022,01,21,22,32,1039.45
2022,01,21,22,33,1039.49
2022,01,21,22,34,1039.49
2022,01,21,22,35,1039.49
2022,01,21,22,36,1039.45
2022,01,21,22,37,1039.42
2022,01,21,22,38,1039.38
2022,01,21,22,39,1039.38
2022,01,21,22,40,1039.39
2022,01,21,22,41,1039.49
2022,01,21,22,42,1039.45
2022,01,21,22,43,1039.42
2022,01,21,22,44,1039.45
2022,01,21,22,45,1039.45
2022,01,21,22,46,1039.45
2022,01,21,22,47,1039.49
2022,01,21,22,48,1039.45
2022,01,21,22,49,1039.42
2022,01,21,22,50,1039.39
2022,01,21,22,51,1039.45
2022,01,21,22,52,1039.45
2022,01,21,22,53,1039.45
2022,01,21,22,54,1039.49
2022,01,21,22,55,1039.45
2022,01,21,22,56,1039.45
2022,01,21,22,57,1039.49
2022,01,21,22,58,1039.45
2022,01,21,22,59,1039.45
2022,01,21,23,00,1039.42
2022,01,21,23,01,1039.42
2022,01,21,23,02,1039.38
2022,01,21,23,03,1039.35
2022,01,21,23,04,1039.32
2022,01,21,23,05,1039.28
2022,01,21,23,06,1039.32
2022,01,21,23,07,1039.28
2022,01,21,23,08,1039.28
2022,01,21,23,09,1039.25
2022,01,21,23,10,1039.25
2022,01,21,23,11,1039.28
2022,01,21,23,12,1039.28
2022,01,21,23,13,1039.25
2022,01,21,23,14,1039.28
2022,01,21,23,15,1039.28
2022,01,21,23,16,1039.32
2022,01,21,23,17,1039.35
2022,01,21,23,18,1039.32
2022,01,21,23,19,1039.38
2022,01,21,23,20,1039.38
2022,01,21,23,21,1039.42
2022,01,21,23,22,1039.38
2022,01,21,23,23,1039.38
2022,01,21,23,24,1039.38
2022,01,21,23,25,1039.38
2022,01,21,23,26,1039.42
2022,01,21,23,27,1039.38
2022,01,21,23,28,1039.38
2022,01,21,23,29,1039.39
2022,01,21,23,30,1039.45
2022,01,21,23,31,1039.45
2022,01,21,23,32,1039.49
2022,01,21,23,33,1039.55
2022,01,21,23,34,1039.49
2022,01,21,23,35,1039.52
2022,01,21,23,36,1039.49
2022,01,21,23,37,1039.45
2022,01,21,23,38,1039.46
2022,01,21,23,39,1039.52
2022,01,21,23,40,1039.49
2022,01,21,23,41,1039.49
2022,01,21,23,42,1039.46
2022,01,21,23,43,1039.52
2022,01,21,23,44,1039.55
2022,01,21,23,45,1039.52
2022,01,21,23,46,1039.52
2022,01,21,23,47,1039.55
2022,01,21,23,48,1039.55
2022,01,21,23,49,1039.55
2022,01,21,23,50,1039.52
2022,01,21,23,51,1039.49
2022,01,21,23,52,1039.52
2022,01,21,23,53,1039.49
2022,01,21,23,54,1039.49
2022,01,21,23,55,1039.44
2022,01,21,23,56,1039.38
2022,01,21,23,57,1039.38
2022,01,21,23,58,1039.32
2022,01,21,23,59,1039.32
